ImprimablePdf
Antwerp, 25/04/2010, BEL - DVV Antwerp Marathon & 10 Miles
Liste des rapports > 10 Miles - Classement + Video
Recherche: Page: [1] 2 3
567 Entrées
 
Les réclamations ne sont plus acceptées, les résultats sont considérés comme définitifs.
RangNrNomAgeIOCTempsTkmMoy.ScrLocalité
1.781FCAUWELS Anje42BEL1:06:544:10 14.44301MERELBEKE
2.16621FVAN REMOORTEL Sofie40BEL1:11:464:28 13.46712
3.19105FWUYTACK Sara42BEL1:12:054:29 13.40746KRUIBEKE
4.63FSCHELKENS Sigi43BEL1:12:294:31 13.32785'S GRAVENWEZEL
5.333FBERTONA Anna43BEL1:12:354:31 13.31794KAPELLEN (ANTW.)
6.14848FLENAERTS Silvia44BEL1:12:474:32 13.27829
7.7293FBOSTEELS Leen40BEL1:13:174:34 13.18904BELSELE
8.10512FBONGAERTS Patricia44BEL1:15:294:42 12.801242ANTWERPEN 2
9.18128FBYLOIS Conny43BEL1:16:194:45 12.661401DEURNE (ANTWERPEN)
10.601FFAES Jeanine42BEL1:16:414:46 12.591493BORSBEEK
11.6245FTEN BRUGGENCATE Auke43NLD1:16:494:47 12.571531VLISSINGEN
12.18656FSAMSON Hilde44BEL1:17:144:48 12.501605SINT-NIKLAAS
13.6466FRUBBENS Bernadette40BEL1:18:474:54 12.261955PUURS
14.2408FCLOOSTERMANS Nadja40BEL1:19:294:57 12.152153TEMSE
15.724FVAN BASTELAERE Els44BEL1:19:384:57 12.132197BRUSSEL 2
16.2790FSANSEN Katrien40BEL1:21:255:04 11.862699BERCHEM
17.2753FHICKETICK Petra44BEL1:21:275:04 11.862708BRASSCHAAT
18.10293FAERTS Karine42BEL1:21:435:05 11.822793KRUIBEKE
19.18330FDE WACHTER Gaby43BEL1:21:555:06 11.792851LONDERZEEL
20.13828FVAN HYFTE Liv41BEL1:22:095:07 11.762916MERKSEM
21.5411FDE VLEESCHOUWER Sabine43BEL1:22:095:07 11.762917NIEUWKERKEN-WAAS
22.1583FVANDEN BUSSCHE Ingrid42BEL1:22:235:08 11.722982TREMELO
23.997FGRAUWELS Katleen43BEL1:22:595:10 11.643166DUFFEL
24.11783FSMET Ann41BEL1:23:055:10 11.633184MERKSEM
25.12799FDULLAERT Annemie44BEL1:23:535:13 11.513420BEVEREN
26.4156FRAEYMAEKERS Inge41BEL1:23:575:13 11.503439GIERLE
27.8969FCUYPERS Karin40BEL1:24:015:14 11.493456KALMTHOUT
28.10430FHELLEMANS Tanja40BEL1:24:045:14 11.493469EKEREN
29.15484FHANDELLI Naele40BEL1:24:345:16 11.423604
30.19478FVRANCKEN Sandra42BEL1:24:455:16 11.403668MELSELE
31.1556FVAN REMORTELE Heidie41NLD1:24:485:17 11.393680HOEDEKENSKERKE
32.2712FVANDENBUSSCHE Hylke44BEL1:24:585:17 11.373748HEVERLEE
33.18524FVANCAYSEELE Isebel40BEL1:25:085:18 11.343809LOKEREN
34.5565FVERCAUTEREN Noella43BEL1:25:165:18 11.333850LOKEREN
35.16307FDEMOL CASTELLANA Corine42BEL1:25:335:19 11.293948
36.326FDANIELS Nancy41BEL1:25:375:20 11.283972GEEL
37.2361FVERHEES Joyce42BEL1:25:485:20 11.264028WILRIJK (ANTWERPEN)
38.10412FBONGAERTS Anouk40BEL1:25:495:20 11.254036BRASSCHAAT
39.1197FVERMEULEN Gracy40BEL1:25:515:21 11.254051BURCHT
40.11726FVAN DE MEULEBROEKE Hilde44BEL1:25:565:21 11.244078KORTENBERG
41.16637FBAIJENS Silvy41BEL1:25:595:21 11.234092
42.8662FTAVELLI Virna42ITA1:26:255:23 11.184248SONDRIO
43.2591FWOUTERS Dagmar42BEL1:26:515:24 11.124404RUMST
44.2791FBUYENS Tineke40BEL1:26:555:24 11.114420WORTEL
45.13615FDESTOMBES Marleen44BEL1:27:015:25 11.104464GIERLE
46.845FJAKUBOWSKI Katia40BEL1:27:035:25 11.104470BRASSCHAAT
47.5333FVAN DEN BOSSCHE Els42BEL1:27:055:25 11.094487HERENTALS
48.7569FVAN RIEL Kim40BEL1:27:065:25 11.094490HOBOKEN (ANTWERPEN)
49.96FVAN DEN BUSSCHE Ingrid40BEL1:27:115:25 11.084518WOMMELGEM
50.1972FSTERK Nancy42BEL1:27:125:26 11.084527WILRIJK (ANTWERPEN)
51.3831FDENOLF Sabine41BEL1:27:185:26 11.064565AARSELE
52.16718FMOERMAN Karem44BEL1:27:275:26 11.044637
53.13103FVERWAEST Mieke41BEL1:27:305:27 11.044659KASTERLEE
54.9558FROELANDT Karin40BEL1:27:355:27 11.034689BEVEREN-WAAS
55.2290FBROOTHAERTS Peggy40BEL1:27:405:27 11.024728BRECHT
56.11894FPELEMAN Estrella41BEL1:27:505:28 10.994782KAPELLEN
57.19405FHENDRICKX Ann41BEL1:28:055:29 10.964865MERKSEM (ANTWERPEN)
58.10287FSMEUNINX Els42BEL1:28:065:29 10.964872EKEREN (ANTWERPEN)
59.1559FVANDE CASTEELE Ingrid43BEL1:28:155:29 10.944938BONHEIDEN
60.11924FLONEUX Catherine44BEL1:28:185:30 10.944953KONTICH
61.12001FKERREMANS Sonja41BEL1:28:195:30 10.944957MELSELE
62.6204FPYPE Hilde41BEL1:28:195:30 10.934964KEERBERGEN
63.10440FROEYMANS Greet41BEL1:28:265:30 10.925000EKEREN (ANTWERPEN)
64.16797FVERMEULEN Gert42BEL1:28:285:30 10.925017
65.1472FPHILIPS Annette41BEL1:28:325:30 10.915041BONHEIDEN
66.9751FBOXUS Laurence42BEL1:28:325:30 10.915043SCHELLE
67.6470FDE BOEY Els42BEL1:28:325:31 10.915049KRUIBEKE
68.1485FRAEYMAEKERS Chantal44BEL1:28:355:31 10.905069HOLSBEEK
69.4087FVAN OOSTERHOUT Stefanie41NLD1:28:425:31 10.895107RIJEN
70.10307FBIERMANS Annemie44BEL1:28:455:31 10.885130BERCHEM (ANTWERPEN)
71.3740FDE RAEYMAEKERS Nelly43BEL1:28:525:32 10.875163WIJNEGEM
72.8710FDERKS Brigitte44BEL1:28:545:32 10.865182LIER
73.1409FVAN HERCK Anja40BEL1:28:575:32 10.865206HEIST-OP-DEN-BERG
74.9539FONGENA Klaartje41BEL1:29:245:34 10.805378LOKEREN
75.3933FHILLEN Hilde42BEL1:29:285:34 10.805403MEER
76.15421FKLAPPER Malgorsata40BEL1:29:345:34 10.785445
77.19196FDEBLIECK Tinne44BEL1:29:435:35 10.765510EDEGEM
78.18654FDE JONGH Anja40BEL1:30:015:36 10.735612SINT-NIKLAAS
79.5391FVAN ASSCHE Marleen43BEL1:30:065:36 10.725650BORSBEEK
80.6975FVANDORPE Sandra43BEL1:30:105:37 10.715675STEENOKKERZEEL
81.3689FBENGTSSON Monika42BEL1:30:115:37 10.715683KEERBERGEN
82.7192FVAN LOOK Ann42BEL1:30:155:37 10.705709LIER
83.1460FVAN DER VEKEN Katlijn42BEL1:30:175:37 10.705724ANTWERPEN 5
84.15431FTRUYENS Niki40BEL1:30:215:37 10.695744
85.6370FJANS Petra41BEL1:30:225:37 10.695754GENK
86.4586FPEETERS Martine41BEL1:30:265:38 10.685786GROBBENDONK
87.13020FKONINGS Ilse42BEL1:30:285:38 10.685796KALMTHOUT
88.4250FDE MARE Trui44BEL1:30:495:39 10.635920GENT
89.4086FVAN ELSACKER Lieve43BEL1:30:505:39 10.635929OOSTMALLE
90.8658FBRUGGEMAN Carla42BEL1:30:515:39 10.635932IEPER
91.11469FRILLAERTS Lisbeth41BEL1:30:515:39 10.635934LEEFDAAL
92.10625FALLAERT Petra40BEL1:30:585:40 10.625980DE PANNE
93.9621FBAELUS Annelies40BEL1:31:105:40 10.596053GROBBENDONK
94.9486FPERSOONE Catherine43BEL1:31:225:41 10.576128SCHOTEN
95.13587FBUERSENS Diane42BEL1:31:235:41 10.576136GIERLE
96.9209FHENDRICKX Carine41BEL1:31:245:41 10.576145STEENHUIZE
97.8104FHENDRICKX Els40BEL1:31:245:41 10.576149GROTENBERGE
98.3166FRODRIGUEZ Helena42BEL1:31:315:42 10.556192EKEREN (ANTWERPEN)
99.11208FBORGHOMS Sabine44BEL1:31:365:42 10.546214REKEM
100.1503FSCHATTEMAN Saskia42BEL1:31:475:43 10.526309MUIZEN (MECHELEN)
101.3887FVAN KASTEREN Marjan42BEL1:31:525:43 10.516345ANTWERPEN 1
102.7383FDENDOOVEN Els44BEL1:31:595:43 10.506389GRIMBERGEN
103.4520FLANDUYT Ingeborg40BEL1:32:005:43 10.506391HEMIKSEM
104.2747FDEWULF Inge40BEL1:32:025:44 10.496410SINT-ANDRIES
105.5212FGILOPS Leen42BEL1:32:175:45 10.466511WESTMALLE
106.7770FDE GROOF Hilde42BEL1:32:225:45 10.466535BEVEREN
107.16520FDESSOY Katryn42BEL1:32:255:45 10.456554
108.3817FPAERMENTIER Ingrid41BEL1:32:335:45 10.436605EVERBERG
109.11923FBOONE Nancy43BEL1:32:365:46 10.436624RUMST
110.2970FWITTEVEEN Yolanda42BEL1:32:455:46 10.416676BOUTERSEM
111.1334FVAN HEES Carine43BEL1:32:485:46 10.416691BRASSCHAAT
112.977FHAESEVOETS Ruth40BEL1:32:535:47 10.406717DESSEL
113.3383FKRUITHOF Elli42BEL1:32:585:47 10.396756GENT
114.18852FHESTERS Sofie40BEL1:32:595:47 10.396762ZAFFELARE
115.10336FDE VOS Ines40BEL1:33:035:47 10.386783LIER
116.5557FCLIJMANS Mia44BEL1:33:065:48 10.376798VOSSELAAR
117.3142FGEUDENS Hilde43BEL1:33:085:48 10.376811MUIZEN (MECHELEN)
118.11966FDE VOLDER Ilse44BEL1:33:115:48 10.366835EDEGEM
119.16284FWOUTERS Kristel41BEL1:33:135:48 10.366851ASSE
120.13102FHEYLEN Ann42BEL1:33:155:48 10.366866HERENTALS
121.2666FGEPTS Liliane43BEL1:33:205:48 10.356889MERELBEKE
122.6744FEYCKERMAN Inez42BEL1:33:205:48 10.356897ANTWERPEN 2
123.872FGRASSI Mirella42BEL1:33:275:49 10.336948DEURNE (ANTWERPEN)
124.1163FPEDRAZZOLI Paola44ITA1:33:305:49 10.336962SONDRIO
125.6981FCOUDEVILLE Claudia42BEL1:33:375:49 10.327030JABBEKE
126.15444FNOTEN Karian43BEL1:33:395:50 10.317046
127.14920FTROCH Annelies42BEL1:33:405:50 10.317053
128.2725FGODERIS Katrin43BEL1:33:445:50 10.307094ANTWERPEN
129.19079FBILLIAU Sandra44BEL1:33:455:50 10.307101SCHELLE
130.1830FDE RUYCK Hilde44BEL1:33:495:50 10.297129EVERBERG
131.3848FDE WEVER Kathleen44BEL1:33:515:50 10.297141VEERLE
132.11382FGOESSENS Els42BEL1:33:555:51 10.287180OUTER
133.13391FDE NAEYER Katelijn44BEL1:34:005:51 10.277211LOKEREN
134.6852FVANTHEMSCHE Francoise42BEL1:34:045:51 10.277247KNOKKE
135.19390FDE POOTER Diane43BEL1:34:055:51 10.277251LIER
136.8931FDE BRESSER Peggy43BEL1:34:065:51 10.267259BERCHEM (ANTWERPEN)
137.17070FDE WIT Christine43BEL1:34:085:51 10.267270
138.4890FVANDROOGENBROECK Chrystel41BEL1:34:105:52 10.267287WILSELE
139.19212FHEYNINCK Uschi40BEL1:34:185:52 10.247357MEERDONK
140.4830FVAN CAMP Mireille41BEL1:34:205:52 10.247372KONTICH
141.9661FAERS Kathleen41BEL1:34:205:52 10.247373LANDEGEM
142.2676FHEYVAERT Isabelle41BEL1:34:225:52 10.237396SINT-DENIJS-WESTREM
143.2017FSVERDRUP Kristin44BEL1:34:285:53 10.227443WATERLOO
144.7633FDE MAEYER Sandra40BEL1:34:325:53 10.227474WILLEBROEK
145.8651FGIJSBREGTS Edith43BEL1:34:365:53 10.217505BRECHT
146.19213FPENNEMAN Greet41BEL1:34:495:54 10.197578KIELDRECHT (BEVEREN)
147.19052FSTUYVEN Ann40BEL1:35:015:55 10.167648HAMME
148.1026FBAFFIGO Marta41BEL1:35:045:55 10.167659GENVAL
149.16445FMEULEMANS Sigrid44BEL1:35:045:55 10.167661SINT-KATELIJNE-WAVER
150.16657FVERSPRILLE Kristin42BEL1:35:095:55 10.157702
151.2733FWINANT Nadine42BEL1:35:145:55 10.147739LOVENJOEL-BIERBEEK
152.11505FVAN DEN BROEK Ellen40BEL1:35:165:56 10.147747HOOGSTRATEN
153.1939FFOGED Stine41BEL1:35:205:56 10.137775GENT
154.15335FVAN BAEKEL Hilde40BEL1:35:205:56 10.137776
155.2824FPAUWELS Danielle41BEL1:35:275:56 10.127813WILRIJK
156.3727FNDAYISABA Dina44BEL1:35:305:56 10.117839AARTSELAAR
157.8554FSAGAERT Inge40BEL1:35:325:57 10.117852EDEGEM
158.12033FERKEN Nancy44BEL1:35:365:57 10.107881RANST
159.19061FVERBRAEKEN Els44BEL1:35:445:57 10.097926ZWIJNDRECHT
160.8846FCOPPENS Katelijne42BEL1:35:495:58 10.087960MORTSEL
161.11632FDELRUE Dominique43BEL1:35:555:58 10.077998BRAKEL
162.4307FDEVROE Nancy42BEL1:35:565:58 10.078001PITTEM
163.2312FVAN DAMME Pascale43BEL1:35:585:58 10.068022KEERBERGEN
164.18737FSEELS Catherine44BEL1:36:025:58 10.068046HOVE
165.10093FVERSWYVEL Chantal41BEL1:36:025:58 10.068053VILVOORDE
166.18609FHEYRMAN Els40BEL1:36:045:59 10.058059BEVEREN-WAAS
167.7344FLAUWERS Marjan43BEL1:36:045:59 10.058060SCHELLE
168.13311FVAN ROSENDAAL Els44BEL1:36:085:59 10.058076EKEREN (ANTWERPEN)
169.3508FVAN HOOF Christine43BEL1:36:135:59 10.048102LEUVEN
170.11915FTEMMERMAN Kathleen42BEL1:36:135:59 10.048105SINT-NIKLAAS
171.7358FNIJDAM Carlien44NLD1:36:145:59 10.048114WESTKAPELLE
172.8629FDE WOLF Evelien41NLD1:36:145:59 10.048120VLISSINGEN
173.16744FPEERS Krista40BEL1:36:165:59 10.038129
174.18306FDEHAEN Katrijn40BEL1:36:185:59 10.038141TEMSE
175.18347FNONNEMAN Mona41BEL1:36:206:00 10.028159KRUIBEKE
176.18155FWILLEMS Christine44BEL1:36:286:00 10.018225ZOERSEL
177.6008FSTINCKENS Nele40BEL1:36:286:00 10.018228KESSEL-LO
178.8510FFEXIS Daphne43BEL1:36:336:00 10.008269TURNHOUT
179.9142FVAN WINKEL Anne41BEL1:36:336:00 10.008271DUFFEL
180.1819FVANDERPOORTEN Mary-Ann40BEL1:36:346:00 10.008275LEEST
181.4318FBRYSSINCK Kathleen42BEL1:36:346:00 10.008277PULLE
182.19606FSTORME Karin44BEL1:36:396:01 9.998305RUISELEDE
183.3888FLAMMENS Danielle44BEL1:36:476:01 9.988354BRASSCHAAT
184.1348FZEGERS Carla42NLD1:36:486:01 9.988362KOEWACHT
185.1670FDE WAELE Ann43BEL1:36:486:01 9.988372MOERBEKE-WAAS
186.18836FGINNEBERGE Angelique40BEL1:36:516:02 9.978390GENT
187.3415FVAN GEETSOM Nansi42BEL1:36:516:02 9.978392RUMST
188.16790FMARTENS Ann42BEL1:36:536:02 9.978402
189.13500FLOOTS Fabienne40BEL1:36:536:02 9.978403BERCHEM (ANTWERPEN)
190.2639FDESMAELE Tina41BEL1:36:546:02 9.978411BRUGGE
191.12832FWATZEEELS Annemie43BEL1:37:146:03 9.938530ANTWERPEN
192.2321FLANG Sonja42LUX1:37:156:03 9.938538SANDWEILER
193.1682FVAN MEIRHAEGHE Debora43BEL1:37:166:03 9.938544ANTWERPEN
194.3368FHELSEN Annick43BEL1:37:216:03 9.928580RAMSEL
195.13755FVERHOEVEN Helena44BEL1:37:306:04 9.918632STABROEK
196.18608FGORIS Josee44BEL1:37:356:04 9.908674BERCHEM (ANTWERPEN)
197.7225FVERCRUYSSE Karen40BEL1:37:376:04 9.898686MELSELE
DNF: abandon; DSQ: disqualifié; Vitesse en km/h
ChronoRace - Electronic Timing - www.chronorace.be